Location: Trenton
(45.6167°N, 62.6167°W)
Time: 09:30:54
(UTC+00:00)

Nauka - Pass Details

Date: 05 October 2021
Orbit: 417 x 423 km, 51.6° (Epoch: 16 October)

Event Time Altitude Azimuth Distance (km) Brightness Sun altitude
Rises 22:59:40 0° 292° (WNW) 2,364 ? -14.3°
Reaches altitude 10° 23:01:58 10° 279° (W) 1,498 ? -14.7°
Maximum altitude 23:04:49 26° 221° (SW) 865 ? -15.2°
Enters shadow 23:07:27 11° 165° (SSE) 1,418 ? -15.6°
